When you browse on this site, cookies collect data to enhance your experience and personalize the content and advertising you see.
Visit our Privacy Policy to learn more. By continuing to use the site, you agree to this use of cookies and data.

Hourly Weather Mérida

Today, 12 July, Sunday

Time Temperature Precipitation Wind Pressure Humidity
00:00 +14°C° 0 mm 1 mps 592 mmHg 90%
01:00 +14°C° 0 mm 1 mps 592 mmHg 90%
02:00 +14°C° 0 mm 1 mps 592 mmHg 89%
03:00 +14°C° 0 mm 1 mps 592 mmHg 89%
04:00 +14°C° 0 mm 1 mps 592 mmHg 89%
05:00 +15°C° 0 mm 1 mps 593 mmHg 87%
06:00 +16°C° 0 mm 1 mps 594 mmHg 85%
07:00 +16°C° 0 mm 0 mps 594 mmHg 83%
08:00 +19°C° 0.3 mm 1 mps 595 mmHg 83%
09:00 +20°C° 0.3 mm 1 mps 595 mmHg 83%
10:00 +20°C° 0.3 mm 2 mps 596 mmHg 84%
11:00 +20°C° 2.1 mm 1 mps 595 mmHg 87%
12:00 +19°C° 2.1 mm 1 mps 595 mmHg 90%
13:00 +18°C° 2.1 mm 1 mps 594 mmHg 94%
14:00 +18°C° 2.8 mm 1 mps 593 mmHg 93%
15:00 +18°C° 2.8 mm 1 mps 593 mmHg 93%
16:00 +18°C° 2.8 mm 1 mps 592 mmHg 93%
17:00 +16°C° 0.8 mm 1 mps 592 mmHg 93%
18:00 +16°C° 0.8 mm 1 mps 593 mmHg 93%
19:00 +16°C° 0.8 mm 1 mps 593 mmHg 93%
20:00 +16°C° 0.9 mm 2 mps 593 mmHg 93%
21:00 +15°C° 0.9 mm 2 mps 593 mmHg 93%
22:00 +15°C° 0.9 mm 2 mps 594 mmHg 92%
23:00 +15°C° 0 mm 2 mps 593 mmHg 90%

Tomorrow, 13 July, Monday

Time Temperature Precipitation Wind Pressure Humidity
00:00 +14°C° 0 mm 2 mps 593 mmHg 89%
01:00 +14°C° 0 mm 2 mps 592 mmHg 87%
02:00 +14°C° 0 mm 2 mps 592 mmHg 87%
03:00 +14°C° 0 mm 2 mps 592 mmHg 88%
04:00 +14°C° 0 mm 2 mps 592 mmHg 88%
05:00 +14°C° 0 mm 2 mps 593 mmHg 86%
06:00 +15°C° 0 mm 2 mps 594 mmHg 85%
07:00 +16°C° 0 mm 2 mps 594 mmHg 83%
08:00 +18°C° 0.1 mm 2 mps 595 mmHg 79%
09:00 +19°C° 0.1 mm 2 mps 596 mmHg 74%
10:00 +20°C° 0.1 mm 2 mps 597 mmHg 69%
11:00 +20°C° 0.7 mm 2 mps 596 mmHg 74%
12:00 +19°C° 0.7 mm 2 mps 595 mmHg 80%
13:00 +19°C° 0.7 mm 2 mps 595 mmHg 85%
14:00 +18°C° 1.4 mm 2 mps 594 mmHg 87%
15:00 +19°C° 1.4 mm 1 mps 594 mmHg 89%
16:00 +18°C° 1.4 mm 1 mps 593 mmHg 91%
17:00 +18°C° 0.6 mm 1 mps 593 mmHg 91%
18:00 +16°C° 0.6 mm 2 mps 593 mmHg 92%
19:00 +16°C° 0.6 mm 2 mps 593 mmHg 92%
20:00 +15°C° 0.1 mm 2 mps 593 mmHg 92%
21:00 +15°C° 0.1 mm 2 mps 593 mmHg 91%
22:00 +14°C° 0.1 mm 2 mps 593 mmHg 90%
23:00 +15°C° 0.2 mm 2 mps 593 mmHg 90%

Day after tomorrow, 14 July, Tuesday

Time Temperature Precipitation Wind Pressure Humidity
00:00 +15°C° 0.2 mm 2 mps 593 mmHg 89%
01:00 +15°C° 0.2 mm 2 mps 593 mmHg 89%
02:00 +15°C° 0.1 mm 2 mps 593 mmHg 89%
03:00 +15°C° 0.1 mm 2 mps 592 mmHg 89%
04:00 +14°C° 0.1 mm 2 mps 592 mmHg 89%
05:00 +15°C° 0 mm 2 mps 593 mmHg 87%
06:00 +16°C° 0 mm 2 mps 594 mmHg 85%
07:00 +16°C° 0 mm 2 mps 594 mmHg 83%
08:00 +18°C° 0.1 mm 2 mps 595 mmHg 79%
09:00 +19°C° 0.1 mm 2 mps 596 mmHg 75%
10:00 +20°C° 0.1 mm 2 mps 596 mmHg 71%
11:00 +20°C° 0.9 mm 2 mps 596 mmHg 76%
12:00 +19°C° 0.9 mm 2 mps 595 mmHg 82%
13:00 +18°C° 0.9 mm 2 mps 594 mmHg 87%
14:00 +18°C° 0.9 mm 2 mps 594 mmHg 84%
15:00 +18°C° 0.9 mm 2 mps 593 mmHg 81%
16:00 +20°C° 0.9 mm 1 mps 593 mmHg 78%
17:00 +17°C° 0.2 mm 2 mps 593 mmHg 82%
18:00 +16°C° 0.2 mm 2 mps 593 mmHg 87%
19:00 +15°C° 0.2 mm 2 mps 592 mmHg 91%
20:00 +14°C° 0 mm 2 mps 593 mmHg 89%
21:00 +14°C° 0 mm 2 mps 593 mmHg 88%
22:00 +14°C° 0 mm 2 mps 593 mmHg 87%
23:00 +14°C° 0 mm 2 mps 593 mmHg 84%

15 July, Wednesday

Time Temperature Precipitation Wind Pressure Humidity
00:00 +13°C° 0 mm 2 mps 592 mmHg 81%
01:00 +13°C° 0 mm 2 mps 592 mmHg 78%
02:00 +13°C° 0 mm 2 mps 591 mmHg 75%
03:00 +12°C° 0 mm 2 mps 591 mmHg 72%
04:00 +12°C° 0 mm 2 mps 591 mmHg 69%
05:00 +14°C° 0 mm 2 mps 592 mmHg 67%
06:00 +15°C° 0 mm 2 mps 593 mmHg 65%
07:00 +16°C° 0 mm 2 mps 594 mmHg 63%
08:00 +18°C° 0 mm 2 mps 595 mmHg 59%
09:00 +19°C° 0 mm 2 mps 595 mmHg 56%
10:00 +21°C° 0 mm 2 mps 596 mmHg 53%
11:00 +21°C° 0.1 mm 2 mps 596 mmHg 58%
12:00 +21°C° 0.1 mm 2 mps 595 mmHg 63%
13:00 +20°C° 0.1 mm 2 mps 594 mmHg 68%
14:00 +20°C° 0.8 mm 2 mps 593 mmHg 76%
15:00 +20°C° 0.8 mm 1 mps 593 mmHg 84%
16:00 +19°C° 0.8 mm 1 mps 592 mmHg 92%
17:00 +18°C° 0.8 mm 1 mps 592 mmHg 93%
18:00 +16°C° 0.8 mm 1 mps 592 mmHg 94%
19:00 +16°C° 0.8 mm 1 mps 592 mmHg 95%
20:00 +15°C° 0.2 mm 1 mps 592 mmHg 93%
21:00 +14°C° 0.2 mm 1 mps 592 mmHg 92%
22:00 +14°C° 0.2 mm 1 mps 592 mmHg 90%
23:00 +13°C° 0 mm 1 mps 592 mmHg 90%

16 July, Thursday

Time Temperature Precipitation Wind Pressure Humidity
00:00 +13°C° 0 mm 1 mps 591 mmHg 89%
01:00 +13°C° 0 mm 2 mps 591 mmHg 89%
02:00 +13°C° 0.1 mm 2 mps 591 mmHg 89%
03:00 +14°C° 0.1 mm 2 mps 592 mmHg 90%
04:00 +14°C° 0.1 mm 2 mps 592 mmHg 90%
05:00 +15°C° 0 mm 1 mps 592 mmHg 89%
06:00 +15°C° 0 mm 1 mps 593 mmHg 88%
07:00 +16°C° 0 mm 1 mps 594 mmHg 87%
08:00 +18°C° 0.2 mm 1 mps 594 mmHg 84%
09:00 +19°C° 0.2 mm 1 mps 595 mmHg 81%
10:00 +20°C° 0.2 mm 2 mps 595 mmHg 78%
11:00 +20°C° 1 mm 2 mps 595 mmHg 80%
12:00 +20°C° 1 mm 2 mps 594 mmHg 83%
13:00 +21°C° 1 mm 1 mps 594 mmHg 85%
14:00 +20°C° 1.3 mm 1 mps 593 mmHg 86%
15:00 +20°C° 1.3 mm 1 mps 593 mmHg 87%
16:00 +20°C° 1.3 mm 1 mps 592 mmHg 88%
17:00 +19°C° 1 mm 1 mps 592 mmHg 91%
18:00 +18°C° 1 mm 1 mps 592 mmHg 93%
19:00 +16°C° 1 mm 1 mps 592 mmHg 96%
20:00 +16°C° 0.5 mm 1 mps 593 mmHg 95%
21:00 +16°C° 0.5 mm 1 mps 593 mmHg 95%
22:00 +15°C° 0.5 mm 1 mps 593 mmHg 95%
23:00 +15°C° 1 mm 1 mps 593 mmHg 95%

17 July, Friday

Time Temperature Precipitation Wind Pressure Humidity
00:00 +15°C° 1 mm 1 mps 593 mmHg 95%
01:00 +15°C° 1 mm 1 mps 592 mmHg 94%
02:00 +15°C° 0.3 mm 1 mps 592 mmHg 94%
03:00 +15°C° 0.3 mm 1 mps 592 mmHg 94%
04:00 +15°C° 0.3 mm 1 mps 592 mmHg 94%
05:00 +15°C° 0.2 mm 1 mps 593 mmHg 93%
06:00 +16°C° 0.2 mm 1 mps 593 mmHg 92%
07:00 +16°C° 0.2 mm 2 mps 593 mmHg 92%
08:00 +18°C° 0.4 mm 1 mps 594 mmHg 89%
09:00 +19°C° 0.4 mm 1 mps 594 mmHg 87%
10:00 +20°C° 0.4 mm 1 mps 595 mmHg 85%
11:00 +20°C° 1.1 mm 1 mps 595 mmHg 85%
12:00 +20°C° 1.1 mm 2 mps 594 mmHg 85%
13:00 +20°C° 1.1 mm 2 mps 594 mmHg 85%
14:00 +21°C° 1.4 mm 1 mps 593 mmHg 86%
15:00 +20°C° 1.4 mm 1 mps 593 mmHg 87%
16:00 +20°C° 1.4 mm 1 mps 592 mmHg 89%
17:00 +19°C° 1.2 mm 1 mps 592 mmHg 91%
18:00 +18°C° 1.2 mm 1 mps 592 mmHg 93%
19:00 +16°C° 1.2 mm 1 mps 592 mmHg 95%
20:00 +16°C° 0.9 mm 1 mps 593 mmHg 95%
21:00 +16°C° 0.9 mm 1 mps 593 mmHg 95%
22:00 +16°C° 0.9 mm 1 mps 593 mmHg 95%
23:00 +15°C° 0.2 mm 1 mps 593 mmHg 95%
Show more